Regional Weather Roundup
Issued by NWS

Home | Current Version | Previous Version | Graphics & Text | Print | Product List | Glossary On
Versions: 1 2 3 4 5 6 7 8 9 10 11 12 13 14 15 16 17 18 19 20 21 22 23 24 25 26 27 28 29 30 31 32 33 34 35 36 37 38 39 40 41 42 43 44 45 46 47 48 49 50
676
ASUS43 KLMK 130910
RWRKY
KENTUCKY REGIONAL WEATHER ROUNDUP
NATIONAL WEATHER SERVICE LOUISVILLE KY
400 AM EST SAT FEB 13 2016

NOTE "FAIR" INDICATES FEW OR NO CLOUDS BELOW 12,000 FEET
WITH NO SIGNIFICANT WEATHER AND/OR OBSTRUCTIONS TO VISIBILITY.

KYZ001>023-026-027-061>063-070>075-131000-
WESTERN AND SOUTH CENTRAL KENTUCKY

CITY           SKY/WX    TMP DP  RH WIND       PRES   REMARKS
PADUCAH        PTCLDY    21   6  52 N12G21    30.52R WCI   9
HENDERSON      CLEAR     18   3  53 N8        30.53R WCI   7
OWENSBORO      CLEAR     18   5  56 N13       30.52R WCI   5
HOPKINSVILLE   PTCLDY    22  11  62 N7        30.47R WCI  14
BOWLING GREEN  CLOUDY    24  13  62 N12G20    30.46R WCI  13
GLASGOW        MOCLDY    22  12  64 N7        30.42R WCI  13
$$

KYZ024-025-028>034-038-045-046-053-131000-
NORTH CENTRAL KENTUCKY

CITY           SKY/WX    TMP DP  RH WIND       PRES   REMARKS
LOUISVILLE/SDF PTCLDY    19   1  45 N18G24    30.45R WCI   4
LOUISVILLE/LOU PTCLDY    19   3  49 NW13      30.45R WCI   6
FORT KNOX      CLEAR     18   6  59 NW7       30.42R WCI   8
$$

KYZ035>037-039>044-047>052-055>060-089>105-131000-
NORTHEAST KENTUCKY

CITY           SKY/WX    TMP DP  RH WIND       PRES   REMARKS
LEXINGTON      MOCLDY    17   5  59 NW12      30.37R WCI   4
COVINGTON      PTCLDY    14   4  64 NW12      30.38R WCI   0
FRANKFORT      CLOUDY    19   4  51 NW12      30.39R WCI   7
$$

KYZ054-064>069-076>088-106>120-131000-
SOUTHEAST KENTUCKY

CITY           SKY/WX    TMP DP  RH WIND       PRES   REMARKS
JACKSON        CLOUDY    19   9  65 VRB7      30.29R WCI  10
LONDON         FLURRIES  21  11  65 NW10      30.32R WCI  10
SOMERSET       CLOUDY    23  16  74 NW5       30.37S WCI  17
MIDDLESBORO    CLOUDY    23  14  67 NW8       30.31R WCI  14
MONTICELLO     CLOUDY    21  11  65 NW12      30.38R WCI   9
$$





USA.gov is the U.S. government's official web portal to all federal, state and local government web resources and services.